Quillayute, WA
on Tuesday, January 8, 2013

Tuesday
Previous Day Next Day
Daily Summary
 ActualAverageRecord
Temperature
Mean Temperature °F 41°F  
Max Temperature 50°F 46°F 60°F (2003)
Min Temperature 39°F 36°F 19°F (1977)
Degree Days
Heating Degree Days 20 24  
Month to date heating degree days 192  
Since 1 July heating degree days 2670  
Cooling Degree Days 0 0  
Month to date cooling degree days 0  
Year to date cooling degree days 0  
Moisture
Dew Point 44°F   
Average Humidity 96    
Maximum Humidity 100    
Minimum Humidity 89    
Precipitation
Precipitation 1.60 in 0.49 in 1.73 in (1991)
Month to date precipitation 3.78  
Year to date precipitation 3.78  
Wind
Wind Speed 11 mph   
Max Wind Speed 28 mph   
Max Gust Speed 39 mph   
Visibility 2 miles   
Events Fog , Rain   

Key: T is trace of precipitation, MM is missing value
Source: NWS Daily Summary
Time(PST)TemperatureDew PointHumidity Pressure Visibility Wind DirectionWind SpeedGust SpeedPrecipitationEvents Conditions
12:17 AM 39.2°F 39.2°F 100% 30.14 in 1.8 miles Calm Calm - N/A   Mostly Cloudy
12:30 AM 39.2°F 39.2°F 100% 30.13 in 3.0 miles Calm Calm - N/A   Mostly Cloudy
12:51 AM 39.2°F 39.2°F 100% 30.13 in 1.8 miles Calm Calm - N/A   Overcast
12:53 AM 39.9°F 39.0°F 97% 30.13 in 1.2 miles Calm Calm - N/A   Overcast
1:02 AM 39.2°F 39.2°F 100% 30.12 in 2.0 miles Calm Calm - N/A   Overcast
1:10 AM 39.2°F 39.2°F 100% 30.12 in 3.0 miles Calm Calm - N/A   Mostly Cloudy
1:23 AM 39.2°F 39.2°F 100% 30.12 in 2.5 miles Calm Calm - N/A   Mostly Cloudy
1:30 AM 39.2°F 39.2°F 100% 30.13 in 3.0 miles Calm Calm - N/A   Mostly Cloudy
1:53 AM 39.9°F 39.9°F 100% 30.13 in 3.0 miles Calm Calm - N/A   Mostly Cloudy
2:53 AM 42.1°F 39.9°F 92% 30.12 in 5.0 miles ESE 4.6 mph - N/A   Overcast
3:53 AM 42.1°F 39.9°F 92% 30.10 in 3.0 miles East 3.5 mph - 0.01 in Rain Light Rain
4:53 AM 42.1°F 39.9°F 92% 30.06 in 4.0 miles East 6.9 mph - 0.01 in Rain Light Rain
5:21 AM 41.0°F 39.2°F 93% 30.04 in 3.0 miles ESE 5.8 mph - 0.02 in Rain Light Rain
5:45 AM 41.0°F 39.2°F 93% 30.02 in 2.5 miles ESE 5.8 mph - 0.04 in Rain Light Rain
5:53 AM 41.0°F 39.9°F 96% 30.02 in 2.5 miles East 6.9 mph - 0.05 in Rain Light Rain
6:05 AM 41.0°F 39.2°F 93% 30.01 in 3.0 miles East 6.9 mph - 0.01 in Rain Light Rain
6:16 AM 41.0°F 39.2°F 93% 30.00 in 3.0 miles East 9.2 mph - 0.02 in Rain Light Rain
6:53 AM 39.9°F 39.0°F 97% 29.97 in 2.0 miles ENE 6.9 mph - 0.06 in Rain Light Rain
7:08 AM 39.2°F 39.2°F 100% 29.96 in 3.0 miles ENE 5.8 mph - 0.02 in Rain Light Rain
7:20 AM 39.2°F 39.2°F 100% 29.95 in 2.0 miles ENE 5.8 mph - 0.03 in Rain Light Rain
7:44 AM 39.2°F 37.4°F 93% 29.94 in 2.5 miles ENE 5.8 mph - 0.04 in Rain Light Rain
7:53 AM 39.9°F 37.9°F 93% 29.94 in 2.5 miles ENE 5.8 mph - 0.05 in Rain Light Rain
8:49 AM 39.2°F 37.4°F 93% 29.92 in 1.2 miles East 5.8 mph - 0.07 in Rain Light Rain
8:50 AM 39.0°F 37.9°F 96% 29.92 in 1.2 miles East 5.8 mph - 0.07 in Rain Light Rain
9:10 AM 39.2°F 39.2°F 100% 29.91 in 0.8 miles East 6.9 mph - 0.02 in Rain Light Rain
9:18 AM 39.2°F 39.2°F 100% 29.91 in 0.8 miles East 6.9 mph - 0.03 in Rain Light Rain
9:28 AM 39.2°F 39.2°F 100% 29.90 in 1.0 miles East 8.1 mph - 0.04 in Rain Light Rain
9:37 AM 39.2°F 39.2°F 100% 29.89 in 0.8 miles East 8.1 mph - 0.05 in Rain Light Rain
9:53 AM 39.9°F 39.9°F 100% 29.89 in 0.8 miles East 4.6 mph - 0.07 in Rain Light Rain
10:00 AM 41.0°F 39.2°F 93% 29.88 in 1.0 miles East 6.9 mph - 0.00 in Rain Light Rain
10:07 AM 41.0°F 39.2°F 93% 29.88 in 0.8 miles East 3.5 mph - N/A Rain Light Rain
10:53 AM 46.0°F 46.0°F 100% 29.86 in 0.5 miles South 8.1 mph 16.1 mph 0.11 in Fog , Rain Rain
11:03 AM 46.4°F 46.4°F 100% 29.85 in 0.5 miles South 10.4 mph 25.3 mph 0.06 in Fog , Rain Heavy Rain
11:24 AM 46.4°F 46.4°F 100% 29.84 in 0.8 miles South 9.2 mph 18.4 mph 0.20 in Rain Rain
11:53 AM 46.9°F 46.9°F 100% 29.83 in 1.0 miles South 10.4 mph 18.4 mph 0.36 in Rain Light Rain
11:59 AM 46.4°F 46.4°F 100% 29.83 in 1.8 miles South 9.2 mph 18.4 mph 0.01 in Rain Light Rain
12:05 PM 48.2°F 46.4°F 93% 29.83 in 0.8 miles South 9.2 mph 19.6 mph 0.01 in Rain Light Rain
12:21 PM 48.2°F 48.2°F 100% 29.82 in 0.2 miles South 13.8 mph 21.9 mph 0.02 in Fog , Rain Light Rain
12:32 PM 48.2°F 48.2°F 100% 29.82 in 0.5 miles SSW 15.0 mph 23.0 mph 0.02 in Fog , Rain Light Rain
12:53 PM 48.9°F 48.9°F 100% 29.81 in 0.5 miles South 15.0 mph 25.3 mph 0.03 in Fog , Rain Light Rain
1:47 PM 50.0°F 48.2°F 94% 29.79 in 1.8 miles South 15.0 mph 23.0 mph 0.11 in Rain Light Rain
1:53 PM 50.0°F 48.9°F 96% 29.79 in 2.0 miles SSW 12.7 mph 24.2 mph 0.11 in   Overcast
2:03 PM 50.0°F 48.2°F 94% 29.78 in 1.5 miles South 17.3 mph 29.9 mph N/A   Overcast
2:11 PM 48.2°F 48.2°F 100% 29.77 in 1.0 miles South 16.1 mph 26.5 mph N/A   Overcast
2:18 PM 48.2°F 48.2°F 100% 29.77 in 0.8 miles South 20.7 mph 33.4 mph N/A   Overcast
2:53 PM 48.9°F 48.9°F 100% 29.76 in 0.5 miles South 15.0 mph 28.8 mph 0.01 in Fog , Rain Light Rain
3:08 PM 48.2°F 48.2°F 100% 29.75 in 1.0 miles South 11.5 mph 27.6 mph 0.00 in Rain Light Rain
3:17 PM 48.2°F 48.2°F 100% 29.74 in 0.5 miles South 18.4 mph 27.6 mph 0.03 in Fog , Rain Rain
3:53 PM 50.0°F 48.9°F 96% 29.73 in 0.5 miles South 15.0 mph 28.8 mph 0.11 in Fog , Rain Light Rain
4:18 PM 50.0°F 48.2°F 94% 29.73 in 1.5 miles SSW 16.1 mph 33.4 mph 0.04 in Rain Light Rain
4:35 PM 50.0°F 48.2°F 94% 29.72 in 1.0 miles SSW 18.4 mph 33.4 mph 0.04 in Rain Light Rain
4:53 PM 50.0°F 48.9°F 96% 29.72 in 1.2 miles SSW 19.6 mph 35.7 mph 0.05 in Rain Light Rain
5:29 PM 50.0°F 48.2°F 94% 29.70 in 0.8 miles SSW 19.6 mph 35.7 mph 0.02 in Rain Light Rain
5:53 PM 50.0°F 48.9°F 96% 29.70 in 0.5 miles South 23.0 mph 34.5 mph 0.06 in Fog Fog
6:53 PM 50.0°F 48.9°F 96% 29.70 in 1.0 miles South 18.4 mph 38.0 mph 0.08 in Rain Light Rain
7:30 PM 50.0°F 48.2°F 94% 29.68 in 1.5 miles SSW 20.7 mph 36.8 mph 0.03 in Rain Light Rain
7:40 PM 50.0°F 48.2°F 94% 29.68 in 1.0 miles SSW 20.7 mph 39.1 mph 0.03 in Rain Light Rain
7:53 PM 50.0°F 48.9°F 96% 29.69 in 0.8 miles SSW 24.2 mph 38.0 mph 0.04 in Rain Light Rain
8:12 PM 50.0°F 48.2°F 94% 29.68 in 1.0 miles SSW 20.7 mph 32.2 mph 0.03 in Rain Light Rain
8:22 PM 50.0°F 48.2°F 94% 29.68 in 0.8 miles SW 15.0 mph 34.5 mph 0.06 in Rain Rain
8:28 PM 50.0°F 48.2°F 94% 29.68 in 1.5 miles SSW 23.0 mph 33.4 mph 0.07 in Rain Light Rain
8:43 PM 50.0°F 48.2°F 94% 29.68 in 1.0 miles SW 18.4 mph 31.1 mph 0.08 in Rain Light Rain
8:53 PM 50.0°F 48.9°F 96% 29.68 in 0.8 miles SSW 16.1 mph 29.9 mph 0.10 in Rain Light Rain
9:07 PM 48.2°F 48.2°F 100% 29.68 in 1.0 miles SW 24.2 mph 32.2 mph 0.02 in Rain Light Rain
9:38 PM 48.2°F 46.4°F 93% 29.69 in 1.8 miles WSW 25.3 mph 34.5 mph 0.08 in Rain Light Rain
9:49 PM 48.2°F 46.4°F 93% 29.70 in 2.0 miles WSW 19.6 mph 26.5 mph N/A Rain Light Rain
9:53 PM 46.9°F 46.0°F 97% 29.70 in 2.0 miles WSW 19.6 mph 26.5 mph 0.09 in Rain Light Rain
10:22 PM 46.4°F 44.6°F 93% 29.70 in 2.5 miles WSW 15.0 mph 24.2 mph 0.02 in Rain Light Rain
10:53 PM 46.9°F 45.0°F 93% 29.71 in 2.5 miles WSW 15.0 mph 24.2 mph 0.05 in Rain Light Rain
10:55 PM 46.4°F 44.6°F 93% 29.71 in 2.5 miles SW 10.4 mph 24.2 mph 0.00 in Rain Light Rain
11:30 PM 46.4°F 44.6°F 93% 29.72 in 3.0 miles WSW 11.5 mph 23.0 mph 0.04 in Rain Light Rain
11:42 PM 46.4°F 44.6°F 93% 29.73 in 2.5 miles West 13.8 mph - 0.04 in Rain Light Rain
11:46 PM 44.6°F 44.6°F 100% 29.73 in 1.8 miles West 12.7 mph - 0.06 in Rain Rain
11:53 PM 45.0°F 43.0°F 93% 29.73 in 1.8 miles West 10.4 mph 21.9 mph 0.08 in Rain Light Rain
11:58 PM 44.6°F 42.8°F 93% 29.72 in 3.0 miles West 11.5 mph 21.9 mph 0.00 in Rain Light Rain
Moon Phase
Jan. 08 Jan. 11 Jan. 18 Jan. 26 Feb. 03
Sunrise:08:06 AM (PST) Moon Rise:04:44 AM (PST)1/8
Sunset:04:44 PM (PST) Moon Set:01:52 PM (PST)1/8

Copyright © 2014 The Weather Underground, Inc.